Regional Weather Roundup
Issued by NWS Binghamton, NY

Home | Current Version | Previous Version | Text Only | Print | Product List | Glossary On
Versions: 1 2 3 4 5 6 7 8 9 10 11 12 13 14 15 16 17 18 19 20 21 22 23 24 25 26 27 28 29 30 31 32 33 34 35 36 37 38 39 40 41 42 43 44 45 46 47 48 49 50
000
ASUS41 KBGM 290510
RWRBGM

REGIONAL WEATHER ROUNDUP
NATIONAL WEATHER SERVICE BINGHAMTON NY
100 AM EDT THU SEP 29 2016

Note: "fair" indicates few or no clouds below 12,000 feet with no
significant weather and/or obstructions to visibility.

* = Station(s) that does not report precipitation, such as rain,
snow, etc, also no thunder or fog.

NYZ009-015>018-022>025-036-037-044>046-055>057-062-290600
...Central New York...

CITY           SKY/WX    TMP DP  RH WIND       PRES   REMARKS
Binghamton     CLOUDY    54  50  86 E9        30.25R
Cortland       MOCLDY    54  50  87 E12       30.25S
Dansville      CLOUDY    64  51  62 VRB3      30.18R
Elmira         LGT RAIN  59  52  77 E7        30.21R
Ithaca         CLOUDY    55  49  80 E9        30.24R
Hamilton       MOCLDY    55  46  71 SE8G20    30.29S
Hornell        CLOUDY    61  52  72 SE7       30.23R
Monticello     CLOUDY    50  48  93 E10G16    30.29S
Norwich        CLOUDY    54  46  76 SE6       30.29S
Oneonta        CLOUDY    52  45  76 E8        30.29F
Penn Yan       CLOUDY    61  50  67 VRB3      30.23R
Rome           MOCLDY    55  48  77 E17       30.33R
Sidney         CLOUDY    57  54  88 E6        30.27S
Syracuse       MOCLDY    56  50  80 E15       30.25S
$$

PAZ038>040-043-044-047-048-072-290600
...Northeast Pennsylvania...

CITY           SKY/WX    TMP DP  RH WIND       PRES   REMARKS
Hazleton       CLOUDY    54  52  94 E8        30.24
Scranton       CLOUDY    57  51  80 E9G18     30.23R
$$
&&
KEY
WCI = Wind Chill Index
VSB = Visibility
HX  = Heat Index
$$



USA.gov is the U.S. government's official web portal to all federal, state and local government web resources and services.